"Pseudo-MPEC" for P112fxD

Created 2020 Jul 11 11:07:10 UT using Find_Orb

Click here for an explanation of pseudo-MPECs

 
 Astrometry: 
     P112fxD  C2020 06 28G!J4QgAstrometryy`redacted;_drclickG8LbgdPFaT+heregmF51
     P112fxD  C2020 06 28c`[_ldb9egM.'VmforkNn)TVK?`K:Vm-?-BY,umqu3Ji=Gqe*LAUF51
     P112fxD  C2020 06 28k'ZKu7r]0%CZ2sM)5q`$:WK2CV8e)F.u7X!explanation`8y@JrF51
     P112fxD ^C2020 06 29.45239719 45 24.741-39 23 41.84   ~6TJ7 21.72GVNEOCP568
     P112fxD ^C2020 06 29.45429219 45 24.813-39 23 40.35   ~6TJ7 21.54GVNEOCP568

Station data:
(568) Mauna Kea  (N19.826116 W155.472200)  US/Hawaii.
(F51) Pan-STARRS 1, Haleakala  (N20.707235 W156.255910)  US/Hawaii.
   Observers N. Primak, A. Schultz, S. Watters, J. Thiel, T. Goggia. Measurer
   PS1 Science Consortium. 1.8-m Ritchey-Chrétien + CCD.

Orbital elements:  P112fxD
   Perihelion 2020 Jun 26.117197 +/- 41.5 TT =  2:48:45 (JD 2459026.617197)
Epoch 2020 Jun 29.0 TT = JDT 2459029.5   Earth MOID: 0.2944   Ma: 0.0159
M   0.85444546 +/- 11               (J2000 ecliptic)          AutoNEOCP
n   0.29639403 +/- 0.161            Peri.  309.51487 +/- 70
a   2.22786948 +/- 0.808            Node   328.48588 +/- 34
e   0.4168524 +/- 0.184             Incl.    5.47970 +/- 3.5
P   3.33                   H 23.1   G  0.15   U 11.5  SR
q 1.29917669 +/- 0.163    Q 3.15656227 +/- 3.76
From 5 observations 2020 June 28-29 (24.1 hr); mean residual 0".12
Residuals in arcseconds: 
200628 F51  .25+  .05-    200628 F51  .26-  .03+    200629 568  .01-  .01+    
200628 F51  .00   .02+    200629 568  .02+  .01-    

Ephemerides (geocentric):
Date (UTC) HH   RA              Dec         delta   r     elong  mag " sig PA
---- -- -- --  -------------   -----------  ------ ------ -----  --- ---- ---
2020 07 11 11  19 53 34.497   -36 10 04.67  .29961 1.3077 164.5 21.8 4385 118
2020 07 11 12  19 53 35.730   -36 09 18.27  .29964 1.3078 164.5 21.8 4423 118
2020 07 11 13  19 53 36.961   -36 08 31.83  .29966 1.3078 164.5 21.8 4462 118
2020 07 11 14  19 53 38.189   -36 07 45.35  .29969 1.3079 164.5 21.8 4501 118
2020 07 11 15  19 53 39.414   -36 06 58.84  .29972 1.3079 164.5 21.8 4540 118
2020 07 11 16  19 53 40.637   -36 06 12.29  .29975 1.3080 164.6 21.8 4580 118
2020 07 11 17  19 53 41.857   -36 05 25.71  .29977 1.3080 164.6 21.8 4620 118
2020 07 11 18  19 53 43.075   -36 04 39.09  .29980 1.3081 164.6 21.8 4660 118
2020 07 11 19  19 53 44.291   -36 03 52.43  .29983 1.3081 164.6 21.8 4701 118
2020 07 11 20  19 53 45.504   -36 03 05.74  .29986 1.3081 164.6 21.8 4741 118
2020 07 11 21  19 53 46.714   -36 02 19.02  .29988 1.3082 164.6 21.8 4783 118
2020 07 11 22  19 53 47.922   -36 01 32.26  .29991 1.3082 164.7 21.8 4824 117
2020 07 11 23  19 53 49.127   -36 00 45.47  .29994 1.3083 164.7 21.8 4866 117
2020 07 12 00  19 53 50.330   -35 59 58.64  .29997 1.3083 164.7 21.8 4908 117
2020 07 12 01  19 53 51.531   -35 59 11.78  .30000 1.3084 164.7 21.8 4950 117
2020 07 12 02  19 53 52.729   -35 58 24.88  .30003 1.3084 164.7 21.8 4993 117
2020 07 12 03  19 53 53.924   -35 57 37.95  .30006 1.3085 164.8 21.8 5035 117
2020 07 12 04  19 53 55.118   -35 56 50.98  .30009 1.3085 164.8 21.8 5079 117
2020 07 12 05  19 53 56.308   -35 56 03.98  .30012 1.3086 164.8 21.8 5122 117
2020 07 12 06  19 53 57.497   -35 55 16.94  .30015 1.3086 164.8 21.8 5166 117
2020 07 12 07  19 53 58.683   -35 54 29.87  .30018 1.3087 164.8 21.8 5210 117
2020 07 12 08  19 53 59.866   -35 53 42.77  .30021 1.3087 164.9 21.8 5255 117
2020 07 12 09  19 54 01.047   -35 52 55.63  .30024 1.3088 164.9 21.8 5300 117
2020 07 12 10  19 54 02.226   -35 52 08.46  .30027 1.3088 164.9 21.8 5345 117
2020 07 12 11  19 54 03.402   -35 51 21.25  .30030 1.3089 164.9 21.8 5391 117
2020 07 12 12  19 54 04.576   -35 50 34.01  .30033 1.3089 164.9 21.8 5436 117
2020 07 12 13  19 54 05.748   -35 49 46.74  .30036 1.3090 165.0 21.8 5483 117
2020 07 12 14  19 54 06.917   -35 48 59.43  .30039 1.3090 165.0 21.8 5529 117
2020 07 12 15  19 54 08.084   -35 48 12.09  .30042 1.3091 165.0 21.8 5576 117
2020 07 12 16  19 54 09.249   -35 47 24.72  .30046 1.3091 165.0 21.8 5623 117
2020 07 12 17  19 54 10.411   -35 46 37.31  .30049 1.3092 165.0 21.8 5671 117
2020 07 12 18  19 54 11.571   -35 45 49.87  .30052 1.3092 165.0 21.8 5719 117
2020 07 12 19  19 54 12.729   -35 45 02.40  .30055 1.3093 165.1 21.8 5767 117
2020 07 12 20  19 54 13.885   -35 44 14.89  .30059 1.3093 165.1 21.8 5816 117
2020 07 12 21  19 54 15.038   -35 43 27.35  .30062 1.3094 165.1 21.8 5865 117
2020 07 12 22  19 54 16.189   -35 42 39.78  .30065 1.3094 165.1 21.8 5914 117
2020 07 12 23  19 54 17.337   -35 41 52.17  .30069 1.3095 165.1 21.8 5964 117
2020 07 13 00  19 54 18.484   -35 41 04.53  .30072 1.3095 165.2 21.8 6014 117
2020 07 13 01  19 54 19.628   -35 40 16.86  .30075 1.3096 165.2 21.8 6065 116
2020 07 13 02  19 54 20.769   -35 39 29.16  .30079 1.3096 165.2 21.8 6116 116
2020 07 13 03  19 54 21.909   -35 38 41.42  .30082 1.3097 165.2 21.8 6167 116
2020 07 13 04  19 54 23.046   -35 37 53.65  .30085 1.3097 165.2 21.8 6219 116
2020 07 13 05  19 54 24.182   -35 37 05.85  .30089 1.3098 165.2 21.8 6271 116
2020 07 13 06  19 54 25.315   -35 36 18.02  .30092 1.3098 165.3 21.8 6324 116
2020 07 13 07  19 54 26.445   -35 35 30.15  .30096 1.3099 165.3 21.8 6377 116
2020 07 13 08  19 54 27.574   -35 34 42.25  .30099 1.3099 165.3 21.8 6430 116
2020 07 13 09  19 54 28.700   -35 33 54.32  .30103 1.3100 165.3 21.8 6484 116
2020 07 13 10  19 54 29.825   -35 33 06.36  .30107 1.3100 165.3 21.8 6538 116